Time,TemperatureF,DewpointF,PressureIn,WindDirection,WindDirectionDegrees,WindSpeedMPH,WindSpeedGustMPH,Humidity,HourlyPrecipIn,Conditions,Clouds,dailyrainin,SoftwareType,DateUTC
2013-07-21 00:05:00,73.5,69.7,29.75,North,0,0.0,0.0,87,0.00,,,0.00,meteo_script,2013-07-21 04:05:00,
2013-07-21 00:10:00,73.4,69.9,29.75,North,0,0.0,0.0,89,0.00,,,0.00,meteo_script,2013-07-21 04:10:00,
2013-07-21 00:15:00,73.1,69.2,29.75,North,0,0.0,0.0,87,0.00,,,0.00,meteo_script,2013-07-21 04:15:00,
2013-07-21 00:20:00,73.0,69.2,29.76,North,0,0.0,0.0,88,0.00,,,0.00,meteo_script,2013-07-21 04:20:00,
2013-07-21 00:25:00,72.9,69.2,29.76,North,0,0.0,0.0,88,0.00,,,0.00,meteo_script,2013-07-21 04:25:00,
2013-07-21 00:30:00,72.6,69.8,29.76,North,0,0.0,0.0,91,0.00,,,0.00,meteo_script,2013-07-21 04:30:00,
2013-07-21 00:35:00,72.3,69.5,29.76,North,0,0.0,0.0,91,0.00,,,0.00,meteo_script,2013-07-21 04:35:00,
2013-07-21 00:40:00,72.1,69.3,29.76,North,0,0.0,0.0,91,0.00,,,0.00,meteo_script,2013-07-21 04:40:00,
2013-07-21 00:45:00,72.2,69.1,29.76,North,0,0.0,0.0,90,0.00,,,0.00,meteo_script,2013-07-21 04:45:00,
2013-07-21 00:55:00,72.2,69.2,29.76,North,0,0.0,0.0,90,0.00,,,0.00,meteo_script,2013-07-21 04:55:00,
2013-07-21 01:00:00,72.2,69.1,29.76,North,0,0.0,0.0,90,0.00,,,0.00,meteo_script,2013-07-21 05:00:00,
2013-07-21 01:05:00,72.1,69.0,29.76,North,0,0.0,0.0,90,0.00,,,0.00,meteo_script,2013-07-21 05:05:00,
2013-07-21 01:10:00,72.0,69.2,29.76,North,0,0.0,0.0,90,0.00,,,0.00,meteo_script,2013-07-21 05:10:00,
2013-07-21 01:15:00,72.0,68.9,29.77,North,0,0.0,0.0,90,0.00,,,0.00,meteo_script,2013-07-21 05:15:00,
2013-07-21 01:20:00,71.9,69.0,29.77,North,0,0.0,1.0,90,0.00,,,0.00,meteo_script,2013-07-21 05:20:00,
2013-07-21 01:30:00,71.8,69.0,29.77,North,0,0.0,0.0,91,0.00,,,0.00,meteo_script,2013-07-21 05:30:00,
2013-07-21 01:35:00,71.8,69.3,29.77,North,0,0.0,0.0,92,0.00,,,0.00,meteo_script,2013-07-21 05:35:00,
2013-07-21 01:40:00,71.8,69.3,29.77,North,0,0.0,0.0,92,0.00,,,0.00,meteo_script,2013-07-21 05:40:00,
2013-07-21 01:50:00,71.7,69.2,29.77,North,0,0.0,0.0,92,0.00,,,0.00,meteo_script,2013-07-21 05:50:00,
2013-07-21 01:55:00,71.6,69.1,29.77,North,0,0.0,0.0,92,0.00,,,0.00,meteo_script,2013-07-21 05:55:00,
2013-07-21 02:00:00,71.5,69.0,29.78,North,0,0.0,0.0,92,0.00,,,0.00,meteo_script,2013-07-21 06:00:00,
2013-07-21 02:10:00,71.3,68.8,29.77,North,0,0.0,0.0,92,0.00,,,0.00,meteo_script,2013-07-21 06:10:00,
2013-07-21 02:15:00,71.1,68.7,29.77,North,0,0.0,0.0,92,0.00,,,0.00,meteo_script,2013-07-21 06:15:00,
2013-07-21 02:20:00,71.0,68.6,29.78,North,0,0.0,0.0,92,0.00,,,0.00,meteo_script,2013-07-21 06:20:00,
2013-07-21 02:30:00,70.8,69.0,29.78,North,0,0.0,0.0,94,0.00,,,0.00,meteo_script,2013-07-21 06:30:00,
2013-07-21 02:35:00,70.7,68.9,29.78,North,0,0.0,0.0,94,0.00,,,0.00,meteo_script,2013-07-21 06:35:00,
2013-07-21 02:40:00,70.6,68.5,29.78,North,0,0.0,0.0,93,0.00,,,0.00,meteo_script,2013-07-21 06:40:00,
2013-07-21 02:50:00,70.4,68.3,29.78,North,0,0.0,0.0,93,0.00,,,0.00,meteo_script,2013-07-21 06:50:00,
2013-07-21 02:55:00,70.3,68.2,29.78,North,0,0.0,0.0,93,0.00,,,0.00,meteo_script,2013-07-21 06:55:00,
2013-07-21 03:05:00,70.3,68.4,29.78,North,0,0.0,0.0,93,0.00,,,0.00,meteo_script,2013-07-21 07:05:00,
2013-07-21 03:10:00,70.2,68.1,29.78,North,0,0.0,0.0,93,0.00,,,0.00,meteo_script,2013-07-21 07:10:00,
2013-07-21 03:15:00,70.2,68.2,29.78,North,0,0.0,0.0,93,0.00,,,0.00,meteo_script,2013-07-21 07:15:00,
2013-07-21 03:25:00,70.2,68.2,29.77,North,0,0.0,0.0,93,0.00,,,0.00,meteo_script,2013-07-21 07:25:00,
2013-07-21 03:30:00,70.2,68.3,29.78,North,0,0.0,0.0,94,0.00,,,0.00,meteo_script,2013-07-21 07:30:00,
2013-07-21 03:35:00,70.2,68.3,29.77,North,0,0.0,0.0,94,0.00,,,0.00,meteo_script,2013-07-21 07:35:00,
2013-07-21 03:45:00,70.1,68.6,29.78,North,0,0.0,0.0,95,0.00,,,0.00,meteo_script,2013-07-21 07:45:00,
2013-07-21 03:50:00,69.9,68.3,29.78,North,0,0.0,0.0,94,0.00,,,0.00,meteo_script,2013-07-21 07:50:00,
2013-07-21 04:00:00,69.9,68.1,29.78,North,0,0.0,0.0,94,0.00,,,0.00,meteo_script,2013-07-21 08:00:00,
2013-07-21 04:05:00,69.8,68.0,29.78,North,0,0.0,0.0,94,0.00,,,0.00,meteo_script,2013-07-21 08:05:00,
2013-07-21 04:10:00,69.7,68.5,29.78,North,0,0.0,0.0,96,0.00,,,0.00,meteo_script,2013-07-21 08:10:00,
2013-07-21 04:20:00,69.3,68.1,29.78,North,0,0.0,0.0,96,0.00,,,0.00,meteo_script,2013-07-21 08:20:00,
2013-07-21 04:25:00,69.1,68.0,29.79,North,0,0.0,0.0,96,0.00,,,0.00,meteo_script,2013-07-21 08:25:00,
2013-07-21 04:35:00,68.9,67.7,29.79,North,0,0.0,0.0,95,0.00,,,0.00,meteo_script,2013-07-21 08:35:00,
2013-07-21 04:40:00,68.9,67.7,29.80,North,0,0.0,0.0,96,0.00,,,0.00,meteo_script,2013-07-21 08:40:00,
2013-07-21 04:50:00,68.8,67.6,29.80,North,0,0.0,0.0,96,0.00,,,0.00,meteo_script,2013-07-21 08:50:00,
2013-07-21 04:55:00,68.7,67.7,29.80,North,0,0.0,0.0,96,0.00,,,0.00,meteo_script,2013-07-21 08:55:00,
2013-07-21 05:05:00,68.5,67.7,29.81,North,0,0.0,0.0,97,0.00,,,0.00,meteo_script,2013-07-21 09:05:00,
2013-07-21 05:10:00,68.4,67.8,29.81,North,0,0.0,0.0,98,0.00,,,0.00,meteo_script,2013-07-21 09:10:00,
2013-07-21 05:15:00,68.3,67.7,29.81,North,0,0.0,0.0,98,0.00,,,0.00,meteo_script,2013-07-21 09:15:00,
2013-07-21 05:25:00,68.0,67.5,29.81,North,0,0.0,0.0,98,0.00,,,0.00,meteo_script,2013-07-21 09:25:00,
2013-07-21 05:30:00,67.9,67.6,29.81,North,0,0.0,0.0,99,0.00,,,0.00,meteo_script,2013-07-21 09:30:00,
2013-07-21 05:35:00,67.9,67.8,29.81,North,0,0.0,0.0,99,0.00,,,0.00,meteo_script,2013-07-21 09:35:00,
2013-07-21 05:45:00,67.5,67.5,29.81,North,0,0.0,0.0,100,0.00,,,0.00,meteo_script,2013-07-21 09:45:00,
2013-07-21 05:50:00,67.4,67.4,29.82,North,0,0.0,0.0,100,0.00,,,0.00,meteo_script,2013-07-21 09:50:00,
2013-07-21 05:55:00,67.2,67.2,29.82,North,0,0.0,0.0,100,0.00,,,0.00,meteo_script,2013-07-21 09:55:00,
2013-07-21 06:05:00,66.9,66.9,29.82,North,0,0.0,0.0,100,0.00,,,0.00,meteo_script,2013-07-21 10:05:00,
2013-07-21 06:10:00,66.9,66.8,29.82,North,0,0.0,0.0,100,0.00,,,0.00,meteo_script,2013-07-21 10:10:00,
2013-07-21 06:15:00,66.8,66.8,29.83,North,0,0.0,0.0,100,0.00,,,0.00,meteo_script,2013-07-21 10:15:00,
2013-07-21 06:25:00,66.8,66.8,29.83,North,0,0.0,0.0,100,0.00,,,0.00,meteo_script,2013-07-21 10:25:00,
2013-07-21 06:30:00,66.9,66.9,29.83,North,0,0.0,0.0,100,0.00,,,0.00,meteo_script,2013-07-21 10:30:00,
2013-07-21 06:40:00,67.0,67.0,29.83,North,0,0.0,0.0,100,0.00,,,0.00,meteo_script,2013-07-21 10:40:00,
2013-07-21 06:45:00,67.0,67.0,29.83,North,0,0.0,0.0,100,0.00,,,0.00,meteo_script,2013-07-21 10:45:00,
2013-07-21 06:50:00,67.0,67.0,29.83,North,0,0.0,0.0,100,0.00,,,0.00,meteo_script,2013-07-21 10:50:00,
2013-07-21 07:00:00,67.2,67.2,29.83,North,0,0.0,0.0,100,0.00,,,0.00,meteo_script,2013-07-21 11:00:00,
2013-07-21 07:05:00,67.4,67.4,29.84,North,0,0.0,0.0,100,0.00,,,0.00,meteo_script,2013-07-21 11:05:00,
2013-07-21 07:15:00,67.6,67.6,29.84,North,0,0.0,0.0,100,0.00,,,0.00,meteo_script,2013-07-21 11:15:00,
2013-07-21 07:20:00,67.7,67.7,29.84,North,0,0.0,0.0,100,0.00,,,0.00,meteo_script,2013-07-21 11:20:00,
2013-07-21 07:25:00,67.9,67.9,29.84,SSW,213,0.0,1.0,100,0.00,,,0.00,meteo_script,2013-07-21 11:25:00,
2013-07-21 07:35:00,68.2,68.2,29.85,North,0,0.0,0.0,100,0.00,,,0.00,meteo_script,2013-07-21 11:35:00,
2013-07-21 07:40:00,68.4,68.4,29.85,North,0,0.0,1.0,100,0.00,,,0.00,meteo_script,2013-07-21 11:40:00,
2013-07-21 07:45:00,68.7,68.7,29.85,North,0,0.0,2.0,100,0.00,,,0.00,meteo_script,2013-07-21 11:45:00,
2013-07-21 07:55:00,69.0,69.0,29.85,North,0,0.0,1.0,100,0.00,,,0.00,meteo_script,2013-07-21 11:55:00,
2013-07-21 08:00:00,69.2,69.2,29.86,North,0,0.1,2.0,100,0.00,,,0.00,meteo_script,2013-07-21 12:00:00,
2013-07-21 08:05:00,69.5,69.5,29.86,North,0,0.1,1.0,100,0.00,,,0.00,meteo_script,2013-07-21 12:05:00,
2013-07-21 08:15:00,70.0,70.0,29.87,NNW,330,0.1,2.0,100,0.00,,,0.00,meteo_script,2013-07-21 12:15:00,
2013-07-21 08:20:00,70.2,70.2,29.87,North,0,0.1,1.0,100,0.00,,,0.00,meteo_script,2013-07-21 12:20:00,
2013-07-21 08:30:00,70.7,70.7,29.87,North,0,0.1,1.0,100,0.00,,,0.00,meteo_script,2013-07-21 12:30:00,
2013-07-21 08:35:00,71.1,71.1,29.87,NNW,330,0.0,1.0,100,0.00,,,0.00,meteo_script,2013-07-21 12:35:00,
2013-07-21 08:40:00,71.6,71.3,29.87,NNW,330,0.0,1.0,99,0.00,,,0.00,meteo_script,2013-07-21 12:40:00,
2013-07-21 08:50:00,72.4,71.8,29.87,WNW,291,0.2,3.0,98,0.00,,,0.00,meteo_script,2013-07-21 12:50:00,
2013-07-21 08:55:00,72.7,71.8,29.87,North,0,0.2,1.0,97,0.00,,,0.00,meteo_script,2013-07-21 12:55:00,
2013-07-21 09:05:00,73.1,72.0,29.87,North,0,0.0,1.0,96,0.00,,,0.00,meteo_script,2013-07-21 13:05:00,
2013-07-21 09:10:00,73.2,72.0,29.87,WNW,291,0.1,1.0,96,0.00,,,0.00,meteo_script,2013-07-21 13:10:00,
2013-07-21 09:20:00,73.7,72.5,29.87,WNW,291,0.1,1.0,96,0.00,,,0.00,meteo_script,2013-07-21 13:20:00,
2013-07-21 09:25:00,74.0,72.5,29.87,NNW,338,0.1,2.0,95,0.00,,,0.00,meteo_script,2013-07-21 13:25:00,
2013-07-21 09:30:00,74.3,72.5,29.87,NNW,340,0.1,1.0,94,0.00,,,0.00,meteo_script,2013-07-21 13:30:00,
2013-07-21 09:40:00,74.9,73.0,29.87,North,0,0.2,2.0,94,0.00,,,0.00,meteo_script,2013-07-21 13:40:00,
2013-07-21 09:45:00,75.4,73.4,29.87,West,261,0.2,3.0,93,0.00,,,0.00,meteo_script,2013-07-21 13:45:00,
2013-07-21 09:55:00,76.2,74.0,29.87,North,0,0.1,1.0,93,0.00,,,0.00,meteo_script,2013-07-21 13:55:00,
2013-07-21 10:00:00,76.5,74.4,29.87,North,0,0.1,2.0,93,0.00,,,0.00,meteo_script,2013-07-21 14:00:00,
2013-07-21 10:05:00,76.9,74.4,29.87,WSW,243,0.2,2.0,92,0.00,,,0.00,meteo_script,2013-07-21 14:05:00,
2013-07-21 10:15:00,77.7,74.4,29.87,West,275,0.2,2.0,89,0.00,,,0.00,meteo_script,2013-07-21 14:15:00,
2013-07-21 10:20:00,78.6,74.7,29.87,North,0,0.1,1.0,88,0.00,,,0.00,meteo_script,2013-07-21 14:20:00,
2013-07-21 10:25:00,79.4,74.5,29.87,SSE,163,0.3,3.0,85,0.00,,,0.00,meteo_script,2013-07-21 14:25:00,
2013-07-21 10:35:00,80.0,75.1,29.87,North,0,0.1,1.0,85,0.00,,,0.00,meteo_script,2013-07-21 14:35:00,
2013-07-21 10:40:00,79.8,75.2,29.87,North,0,0.0,0.0,86,0.00,,,0.00,meteo_script,2013-07-21 14:40:00,
2013-07-21 10:50:00,80.6,75.4,29.87,North,0,0.0,1.0,84,0.00,,,0.00,meteo_script,2013-07-21 14:50:00,
2013-07-21 10:55:00,82.1,76.2,29.87,SW,229,0.1,2.0,82,0.00,,,0.00,meteo_script,2013-07-21 14:55:00,
2013-07-21 11:00:00,83.4,76.2,29.87,SW,229,0.1,1.0,79,0.00,,,0.00,meteo_script,2013-07-21 15:00:00,
2013-07-21 11:10:00,82.6,75.8,29.87,North,0,0.1,0.0,80,0.00,,,0.00,meteo_script,2013-07-21 15:10:00,
2013-07-21 11:15:00,83.3,76.8,29.87,SW,227,0.1,2.0,81,0.00,,,0.00,meteo_script,2013-07-21 15:15:00,
2013-07-21 11:25:00,83.6,76.6,29.87,SW,226,0.4,2.0,79,0.00,,,0.00,meteo_script,2013-07-21 15:25:00,
2013-07-21 11:30:00,84.1,76.0,29.87,North,0,0.4,4.0,76,0.00,,,0.00,meteo_script,2013-07-21 15:30:00,
2013-07-21 11:35:00,84.5,76.5,29.88,WSW,243,0.3,2.0,77,0.00,,,0.00,meteo_script,2013-07-21 15:35:00,
2013-07-21 11:45:00,85.2,77.1,29.88,WSW,243,0.3,2.0,76,0.00,,,0.00,meteo_script,2013-07-21 15:45:00,
2013-07-21 11:50:00,85.6,76.2,29.87,WSW,243,0.3,2.0,73,0.00,,,0.00,meteo_script,2013-07-21 15:50:00,
2013-07-21 12:00:00,85.4,75.4,29.87,WSW,241,0.3,1.0,72,0.00,,,0.00,meteo_script,2013-07-21 16:00:00,
2013-07-21 12:05:00,85.0,75.3,29.87,North,0,0.3,2.0,73,0.00,,,0.00,meteo_script,2013-07-21 16:05:00,
2013-07-21 12:10:00,84.9,76.1,29.87,WSW,242,0.3,2.0,75,0.00,,,0.00,meteo_script,2013-07-21 16:10:00,
2013-07-21 12:20:00,84.0,74.8,29.88,WSW,249,0.4,4.0,74,0.00,,,0.00,meteo_script,2013-07-21 16:20:00,
2013-07-21 12:25:00,83.1,75.1,29.88,North,0,0.3,0.0,77,0.00,,,0.00,meteo_script,2013-07-21 16:25:00,
2013-07-21 12:35:00,81.5,74.6,29.88,North,0,0.1,2.0,79,0.00,,,0.00,meteo_script,2013-07-21 16:35:00,
2013-07-21 12:40:00,81.2,74.8,29.88,North,0,0.1,1.0,81,0.00,,,0.00,meteo_script,2013-07-21 16:40:00,
2013-07-21 12:45:00,81.2,75.4,29.88,North,0,0.0,0.0,82,0.00,,,0.00,meteo_script,2013-07-21 16:45:00,
2013-07-21 12:55:00,82.3,75.8,29.88,West,264,0.0,2.0,81,0.00,,,0.00,meteo_script,2013-07-21 16:55:00,
2013-07-21 13:05:00,84.2,76.3,29.88,North,0,0.3,3.0,77,0.00,,,0.00,meteo_script,2013-07-21 17:05:00,
2013-07-21 13:10:00,85.0,77.0,29.87,SW,214,0.2,2.0,77,0.00,,,0.00,meteo_script,2013-07-21 17:10:00,
2013-07-21 13:20:00,83.7,76.0,29.87,South,182,0.6,3.0,78,0.00,,,0.00,meteo_script,2013-07-21 17:20:00,
2013-07-21 13:25:00,82.6,75.7,29.87,SSE,162,0.4,3.0,79,0.00,,,0.00,meteo_script,2013-07-21 17:25:00,
2013-07-21 13:30:00,81.6,75.0,29.87,North,0,0.3,3.0,80,0.00,,,0.00,meteo_script,2013-07-21 17:30:00,
2013-07-21 13:40:00,79.9,74.8,29.87,North,0,0.0,0.0,84,0.00,,,0.00,meteo_script,2013-07-21 17:40:00,
2013-07-21 13:45:00,79.4,74.5,29.88,North,0,0.0,1.0,85,0.00,,,0.00,meteo_script,2013-07-21 17:45:00,
2013-07-21 13:50:00,79.4,74.8,29.88,WSW,249,0.0,1.0,86,0.00,,,0.00,meteo_script,2013-07-21 17:50:00,
2013-07-21 14:00:00,79.7,75.1,29.88,North,0,0.1,2.0,86,0.00,,,0.00,meteo_script,2013-07-21 18:00:00,
2013-07-21 14:05:00,79.3,74.8,29.88,North,0,0.0,1.0,86,0.00,,,0.00,meteo_script,2013-07-21 18:05:00,
2013-07-21 14:10:00,79.0,74.6,29.88,North,0,0.0,1.0,86,0.00,,,0.00,meteo_script,2013-07-21 18:10:00,
2013-07-21 14:20:00,78.1,73.5,29.88,North,0,0.0,0.0,86,0.00,,,0.00,meteo_script,2013-07-21 18:20:00,
2013-07-21 14:25:00,77.6,73.7,29.88,North,0,0.0,0.0,88,0.00,,,0.00,meteo_script,2013-07-21 18:25:00,
2013-07-21 14:35:00,76.7,72.9,29.88,North,0,0.1,3.0,88,0.00,,,0.00,meteo_script,2013-07-21 18:35:00,
2013-07-21 14:40:00,76.8,72.9,29.88,North,0,0.1,0.0,88,0.00,,,0.00,meteo_script,2013-07-21 18:40:00,
2013-07-21 14:45:00,77.4,73.4,29.88,SSW,206,0.0,1.0,87,0.00,,,0.00,meteo_script,2013-07-21 18:45:00,
2013-07-21 14:55:00,81.9,75.4,29.87,North,0,0.1,4.0,80,0.00,,,0.00,meteo_script,2013-07-21 18:55:00,
2013-07-21 15:00:00,83.6,75.6,29.87,ESE,112,0.4,5.0,76,0.00,,,0.00,meteo_script,2013-07-21 19:00:00,
2013-07-21 15:10:00,85.6,76.1,29.87,WNW,292,0.5,3.0,73,0.00,,,0.00,meteo_script,2013-07-21 19:10:00,
2013-07-21 15:15:00,86.2,76.3,29.87,West,278,0.2,1.0,72,0.00,,,0.00,meteo_script,2013-07-21 19:15:00,
2013-07-21 15:20:00,86.4,76.7,29.87,North,0,0.2,3.0,73,0.00,,,0.00,meteo_script,2013-07-21 19:20:00,
2013-07-21 15:30:00,85.5,76.1,29.87,SSW,208,0.1,1.0,73,0.00,,,0.00,meteo_script,2013-07-21 19:30:00,
2013-07-21 15:35:00,85.6,75.9,29.87,SSW,195,0.3,2.0,73,0.00,,,0.00,meteo_script,2013-07-21 19:35:00,
2013-07-21 15:45:00,85.9,76.2,29.86,East,86,0.4,2.0,73,0.00,,,0.00,meteo_script,2013-07-21 19:45:00,
2013-07-21 15:50:00,85.8,75.7,29.87,North,0,0.2,2.0,72,0.00,,,0.00,meteo_script,2013-07-21 19:50:00,
2013-07-21 15:55:00,84.8,75.1,29.87,North,0,0.2,2.0,73,0.00,,,0.00,meteo_script,2013-07-21 19:55:00,
2013-07-21 16:05:00,81.9,74.6,29.87,North,0,0.0,0.0,78,0.00,,,0.00,meteo_script,2013-07-21 20:05:00,
2013-07-21 16:10:00,80.9,74.3,29.87,North,0,0.0,1.0,80,0.00,,,0.00,meteo_script,2013-07-21 20:10:00,
2013-07-21 16:15:00,80.1,74.4,29.87,North,0,0.0,0.0,82,0.00,,,0.00,meteo_script,2013-07-21 20:15:00,
2013-07-21 16:25:00,78.7,73.4,29.87,North,0,0.0,1.0,84,0.00,,,0.00,meteo_script,2013-07-21 20:25:00,
2013-07-21 16:30:00,78.3,73.6,29.87,North,0,0.0,0.0,85,0.00,,,0.00,meteo_script,2013-07-21 20:30:00,
2013-07-21 16:40:00,78.5,74.3,29.87,North,0,0.0,0.0,87,0.00,,,0.00,meteo_script,2013-07-21 20:40:00,
2013-07-21 16:45:00,79.3,74.7,29.87,North,0,0.0,0.0,86,0.00,,,0.00,meteo_script,2013-07-21 20:45:00,
2013-07-21 16:50:00,80.1,74.9,29.87,West,276,0.0,1.0,84,0.00,,,0.00,meteo_script,2013-07-21 20:50:00,
2013-07-21 17:00:00,80.5,74.5,29.86,North,0,0.1,2.0,82,0.00,,,0.00,meteo_script,2013-07-21 21:00:00,
2013-07-21 17:05:00,80.3,74.3,29.86,North,0,0.1,1.0,82,0.00,,,0.00,meteo_script,2013-07-21 21:05:00,
2013-07-21 17:10:00,80.3,74.5,29.87,SE,133,0.1,2.0,82,0.00,,,0.00,meteo_script,2013-07-21 21:10:00,
2013-07-21 17:20:00,80.5,74.8,29.87,North,0,0.1,1.0,83,0.00,,,0.00,meteo_script,2013-07-21 21:20:00,
2013-07-21 17:25:00,80.4,74.4,29.86,East,95,0.1,2.0,82,0.00,,,0.00,meteo_script,2013-07-21 21:25:00,
2013-07-21 17:35:00,79.5,74.2,29.87,North,0,0.1,0.0,84,0.00,,,0.00,meteo_script,2013-07-21 21:35:00,
2013-07-21 17:40:00,79.1,74.2,29.87,North,0,0.0,0.0,85,0.00,,,0.00,meteo_script,2013-07-21 21:40:00,
2013-07-21 17:45:00,78.6,74.1,29.86,North,0,0.0,1.0,86,0.00,,,0.00,meteo_script,2013-07-21 21:45:00,
2013-07-21 17:55:00,77.7,73.7,29.86,North,0,0.0,0.0,87,0.00,,,0.00,meteo_script,2013-07-21 21:55:00,
2013-07-21 18:00:00,77.4,73.5,29.86,North,0,0.0,0.0,87,0.00,,,0.00,meteo_script,2013-07-21 22:00:00,
2013-07-21 18:10:00,77.1,73.5,29.86,North,0,0.0,0.0,88,0.00,,,0.00,meteo_script,2013-07-21 22:10:00,
2013-07-21 18:15:00,76.9,73.7,29.86,NNE,20,0.1,2.0,90,0.00,,,0.00,meteo_script,2013-07-21 22:15:00,
2013-07-21 18:20:00,76.7,73.8,29.86,North,0,0.1,0.0,90,0.00,,,0.00,meteo_script,2013-07-21 22:20:00,
2013-07-21 18:30:00,76.8,74.0,29.86,North,0,0.0,1.0,91,0.00,,,0.00,meteo_script,2013-07-21 22:30:00,
2013-07-21 18:35:00,77.1,73.7,29.86,North,0,0.0,0.0,89,0.00,,,0.00,meteo_script,2013-07-21 22:35:00,
2013-07-21 18:40:00,77.1,73.9,29.86,North,0,0.0,0.0,90,0.00,,,0.00,meteo_script,2013-07-21 22:40:00,
2013-07-21 18:50:00,76.7,73.6,29.87,North,0,0.0,2.0,90,0.00,,,0.00,meteo_script,2013-07-21 22:50:00,
2013-07-21 18:55:00,76.5,73.4,29.87,NNE,31,0.1,2.0,90,0.00,,,0.00,meteo_script,2013-07-21 22:55:00,
2013-07-21 19:05:00,76.0,73.5,29.87,North,0,0.0,0.0,92,0.00,,,0.00,meteo_script,2013-07-21 23:05:00,
2013-07-21 19:10:00,75.8,73.6,29.87,North,0,0.0,2.0,92,0.00,,,0.00,meteo_script,2013-07-21 23:10:00,
2013-07-21 19:15:00,75.6,73.4,29.87,North,0,0.0,1.0,93,0.00,,,0.00,meteo_script,2013-07-21 23:15:00,
2013-07-21 19:25:00,75.3,73.1,29.88,North,0,0.0,0.0,93,0.00,,,0.00,meteo_script,2013-07-21 23:25:00,
2013-07-21 19:30:00,75.2,73.0,29.87,North,0,0.0,0.0,93,0.00,,,0.00,meteo_script,2013-07-21 23:30:00,
2013-07-21 19:40:00,75.0,73.1,29.88,North,0,0.0,0.0,94,0.00,,,0.00,meteo_script,2013-07-21 23:40:00,
2013-07-21 19:45:00,75.0,73.1,29.88,North,0,0.0,0.0,94,0.00,,,0.00,meteo_script,2013-07-21 23:45:00,
2013-07-21 19:50:00,74.8,73.1,29.88,North,0,0.0,0.0,94,0.00,,,0.00,meteo_script,2013-07-21 23:50:00,
2013-07-21 20:00:00,74.5,72.9,29.88,North,0,0.0,0.0,95,0.00,,,0.00,meteo_script,2013-07-22 00:00:00,
2013-07-21 20:05:00,74.4,72.8,29.88,North,0,0.0,0.0,94,0.00,,,0.00,meteo_script,2013-07-22 00:05:00,
2013-07-21 20:15:00,74.0,72.6,29.88,North,0,0.0,0.0,95,0.00,,,0.00,meteo_script,2013-07-22 00:15:00,
2013-07-21 20:20:00,73.6,72.4,29.88,North,0,0.0,0.0,96,0.00,,,0.00,meteo_script,2013-07-22 00:20:00,
2013-07-21 20:25:00,73.3,72.1,29.88,North,0,0.0,0.0,96,0.00,,,0.00,meteo_script,2013-07-22 00:25:00,
2013-07-21 20:35:00,73.0,72.1,29.88,North,0,0.0,0.0,97,0.00,,,0.00,meteo_script,2013-07-22 00:35:00,
2013-07-21 20:40:00,72.9,72.1,29.89,North,0,0.0,0.0,97,0.00,,,0.00,meteo_script,2013-07-22 00:40:00,
2013-07-21 20:50:00,72.7,71.8,29.89,North,0,0.0,0.0,97,0.00,,,0.00,meteo_script,2013-07-22 00:50:00,
2013-07-21 21:00:00,72.3,71.7,29.89,North,0,0.0,1.0,97,0.00,,,0.00,meteo_script,2013-07-22 01:00:00,
2013-07-21 21:10:00,72.1,71.5,29.89,North,0,0.0,0.0,98,0.00,,,0.00,meteo_script,2013-07-22 01:10:00,
2013-07-21 21:15:00,72.0,71.4,29.90,North,0,0.0,0.0,98,0.00,,,0.00,meteo_script,2013-07-22 01:15:00,
2013-07-21 21:25:00,71.7,71.1,29.91,North,0,0.0,0.0,98,0.00,,,0.00,meteo_script,2013-07-22 01:25:00,
2013-07-21 21:30:00,71.5,71.1,29.91,North,0,0.0,0.0,98,0.00,,,0.00,meteo_script,2013-07-22 01:30:00,
2013-07-21 21:35:00,71.4,71.1,29.91,North,0,0.0,0.0,99,0.00,,,0.00,meteo_script,2013-07-22 01:35:00,
2013-07-21 21:45:00,71.0,71.0,29.91,North,0,0.0,1.0,100,0.00,,,0.00,meteo_script,2013-07-22 01:45:00,
2013-07-21 21:50:00,70.8,70.8,29.92,North,0,0.0,0.0,100,0.00,,,0.00,meteo_script,2013-07-22 01:50:00,
2013-07-21 21:55:00,70.7,70.7,29.92,North,0,0.0,0.0,100,0.00,,,0.00,meteo_script,2013-07-22 01:55:00,
2013-07-21 22:05:00,70.6,70.5,29.92,North,0,0.0,0.0,100,0.00,,,0.00,meteo_script,2013-07-22 02:05:00,
2013-07-21 22:10:00,70.4,70.4,29.92,North,0,0.0,0.0,100,0.00,,,0.00,meteo_script,2013-07-22 02:10:00,
2013-07-21 22:15:00,70.2,70.2,29.92,North,0,0.0,0.0,100,0.00,,,0.00,meteo_script,2013-07-22 02:15:00,
2013-07-21 22:25:00,69.9,69.9,29.92,North,0,0.0,0.0,100,0.00,,,0.00,meteo_script,2013-07-22 02:25:00,
2013-07-21 22:30:00,69.8,69.8,29.92,North,0,0.0,0.0,100,0.00,,,0.00,meteo_script,2013-07-22 02:30:00,
2013-07-21 22:35:00,69.6,69.6,29.92,North,0,0.0,0.0,100,0.00,,,0.00,meteo_script,2013-07-22 02:35:00,
2013-07-21 22:45:00,69.3,69.3,29.92,North,0,0.0,0.0,100,0.00,,,0.00,meteo_script,2013-07-22 02:45:00,
2013-07-21 22:50:00,69.1,69.1,29.92,North,0,0.0,0.0,100,0.00,,,0.00,meteo_script,2013-07-22 02:50:00,
2013-07-21 23:00:00,68.9,68.9,29.92,North,0,0.0,0.0,100,0.00,,,0.00,meteo_script,2013-07-22 03:00:00,
2013-07-21 23:05:00,68.7,68.7,29.92,North,0,0.0,0.0,100,0.00,,,0.00,meteo_script,2013-07-22 03:05:00,
2013-07-21 23:15:00,68.6,68.6,29.92,North,0,0.0,0.0,100,0.00,,,0.00,meteo_script,2013-07-22 03:15:00,
2013-07-21 23:20:00,68.4,68.4,29.92,North,0,0.0,0.0,100,0.00,,,0.00,meteo_script,2013-07-22 03:20:00,
2013-07-21 23:25:00,68.3,68.3,29.92,North,0,0.0,0.0,100,0.00,,,0.00,meteo_script,2013-07-22 03:25:00,
2013-07-21 23:35:00,68.2,68.2,29.92,North,0,0.0,0.0,100,0.00,,,0.00,meteo_script,2013-07-22 03:35:00,
2013-07-21 23:40:00,68.2,68.2,29.92,North,0,0.0,0.0,100,0.00,,,0.00,meteo_script,2013-07-22 03:40:00,
2013-07-21 23:45:00,68.2,68.2,29.92,North,0,0.0,0.0,100,0.00,,,0.00,meteo_script,2013-07-22 03:45:00,
2013-07-21 23:55:00,68.2,68.2,29.92,North,0,0.0,0.0,100,0.00,,,0.00,meteo_script,2013-07-22 03:55:00,